FW7782 Weather Reports


time (UTC)temp
F
wind
direction
speed
knots
gust
knots
rain 1hr
in
rain 24hr
in
rain mn
in
humidity
%
barometer
mb
20260508100051 58 0 0.0 2.6 0.00 0.38 0.02 92 1013.8
20260508094600 57 0 0.0 3.5 0.00 0.37 0.01 93 1014.3
20260508093055 57 305 1.7 6.1 0.00 0.37 0.01 93 1014.6
20260508091558 57 263 2.6 10.4 0.00 0.37 0.01 93 1014.7
20260508090104 57 271 0.0 0.0 0.00 0.37 0.01 93 1014.1
20260508084553 57 0 0.0 3.5 0.00 0.37 0.01 93 1014.1
20260508083055 56 0 0.0 2.6 0.00 0.37 0.01 93 1013.9
20260508081606 56 222 2.6 4.3 0.00 0.37 0.01 93 1014.1
20260508080051 56 318 0.0 1.7 0.00 0.37 0.01 93 1013.6
20260508074548 56 0 0.9 2.6 0.00 0.37 0.01 93 1013.4
20260508073100 56 281 0.9 2.6 0.00 0.37 0.01 94 1013.1
20260508071613 56 288 0.0 2.6 0.00 0.37 0.01 95 1013.0
20260508064556 54 304 0.9 2.6 0.00 0.37 0.01 95 1012.8
20260508063054 54 302 0.0 1.7 0.00 0.37 0.01 96 1012.8
20260508061556 53 328 0.0 1.7 0.00 0.37 0.01 95 1012.4
20260508060052 53 300 0.9 2.6 0.00 0.37 0.01 96 1012.2
20260508054604 53 297 0.9 3.5 0.00 0.37 0.01 95 1011.9
20260508053052 53 283 0.0 2.6 0.00 0.37 0.01 95 1012.2
20260508051547 53 290 1.7 6.1 0.00 0.37 0.01 95 1012.0
20260508050051 53 288 1.7 4.3 0.00 0.37 0.01 95 1011.9
20260508044557 53 272 1.7 2.6 0.00 0.37 0.01 95 1011.6
20260508043054 53 283 0.9 3.5 0.00 0.37 0.01 95 1011.7
20260508041557 53 290 0.9 2.6 0.00 0.37 0.01 95 1011.8
20260508040059 53 278 0.9 2.6 0.00 0.37 0.01 95 1011.5
20260508034552 54 290 0.9 3.5 0.00 0.37 0.00 95 1011.2
20260508033112 53 0 0.0 1.7 0.00 0.37 0.00 96 1011.3
20260508031549 53 312 0.0 3.5 0.00 0.37 0.00 95 1011.6
20260508030101 53 325 0.9 1.7 0.00 0.37 0.00 95 1011.9
20260508024615 53 322 0.9 2.6 0.00 0.37 0.00 95 1011.8
20260508023051 54 319 0.9 3.5 0.00 0.37 0.00 95 1012.0
20260508021548 53 303 0.9 2.6 0.00 0.37 0.00 95 1011.9
20260508020111 53 293 0.9 3.5 0.00 0.37 0.00 95 1012.0
20260508014556 54 301 0.9 3.5 0.00 0.37 0.00 95 1012.1
20260508013104 54 317 0.0 2.6 0.00 0.37 0.00 95 1012.2
20260508011559 54 269 2.6 2.6 0.00 0.37 0.00 95 1012.3
20260508010105 54 304 0.9 2.6 0.00 0.37 0.00 95 1012.5
20260508004552 54 302 0.9 1.7 0.00 0.37 0.00 95 1012.8
20260508003050 55 320 0.9 1.7 0.00 0.37 0.00 95 1012.9
20260508001556 55 300 0.0 1.7 0.00 0.37 0.00 95 1013.0
20260508000057 55 297 0.9 2.6 0.00 0.37 0.00 95 1013.3
20260507234554 55 317 0.9 2.6 0.00 0.37 0.00 95 1013.4
20260507233051 55 297 0.9 2.6 0.00 0.37 0.00 95 1013.5
20260507231555 55 283 0.0 2.6 0.00 0.37 0.00 94 1013.6
20260507230055 55 296 0.9 2.6 0.00 0.37 0.00 94 1013.6
20260507224552 55 297 0.0 2.6 0.00 0.37 0.00 94 1013.5
20260507223053 56 0 0.0 0.0 0.00 0.37 0.00 94 1013.5
20260507221548 56 0 0.0 0.0 0.00 0.36 0.00 94 1013.3
20260507220051 56 0 0.0 0.0 0.00 0.36 0.00 94 1013.2
20260507214550 56 0 0.0 1.7 0.00 0.36 0.36 93 1013.1
20260507213059 57 29 1.7 3.5 0.00 0.36 0.36 93 1013.2
20260507211555 57 38 2.6 4.3 0.00 0.36 0.36 94 1013.0
20260507210057 57 40 2.6 3.5 0.00 0.36 0.36 94 1013.1
20260507204550 57 0 0.9 4.3 0.00 0.36 0.36 94 1013.2
20260507203053 57 30 3.5 6.1 0.00 0.36 0.36 94 1013.2
20260507201552 57 0 0.0 1.7 0.00 0.36 0.36 95 1013.0
20260507200052 57 337 0.9 2.6 0.00 0.36 0.36 94 1013.0
20260507194607 57 358 1.7 4.3 0.00 0.36 0.36 94 1012.8
20260507193052 57 28 2.6 5.2 0.00 0.36 0.36 94 1012.5
20260507191551 57 17 3.5 7.0 0.02 0.36 0.36 94 1012.2
20260507190051 57 51 2.6 8.7 0.07 0.36 0.36 94 1011.8
20260507184554 57 71 5.2 9.6 0.12 0.36 0.36 94 1011.8
20260507183055 57 47 5.2 10.4 0.23 0.36 0.36 94 1011.6
20260507181555 57 41 5.2 9.6 0.29 0.33 0.33 94 1011.5
20260507180057 57 11 3.5 7.8 0.26 0.29 0.29 93 1011.6
20260507174554 57 63 3.5 6.1 0.22 0.23 0.23 92 1011.7
20260507173103 59 314 1.7 4.3 0.11 0.12 0.12 92 1011.5
20260507171555 60 316 0.9 3.5 0.03 0.04 0.04 88 1011.3
20260507170055 61 333 0.9 5.2 0.01 0.02 0.02 85 1011.3
20260507164551 62 0 0.0 3.5 0.00 0.00 0.00 85 1011.0
20260507163058 62 89 1.7 8.7 0.00 0.00 0.00 86 1010.6
20260507161557 62 122 4.3 8.7 0.00 0.00 0.00 86 1010.4
20260507160053 62 115 4.3 10.4 0.00 0.00 0.00 88 1010.6
20260507154554 63 150 5.2 10.4 0.00 0.00 0.00 87 1010.4
20260507153102 63 134 3.5 7.0 0.00 0.00 0.00 86 1010.3
20260507151555 64 106 5.2 7.8 0.00 0.00 0.00 85 1010.5
20260507150105 65 97 3.5 7.8 0.00 0.00 0.00 85 1010.5
20260507144552 65 130 3.5 7.0 0.00 0.00 0.00 85 1010.3
20260507143103 65 78 3.5 7.0 0.00 0.00 0.00 84 1010.3
20260507141551 65 86 5.2 8.7 0.00 0.00 0.00 84 1010.3
20260507134550 65 108 4.3 7.8 0.00 0.00 0.00 80 1010.6
20260507133057 65 89 2.6 10.4 0.00 0.00 0.00 81 1010.6
20260507131554 65 127 3.5 11.3 0.00 0.00 0.00 82 1010.6
20260507130105 65 103 4.3 9.6 0.00 0.00 0.00 80 1010.8
20260507124600 66 115 7.0 13.0 0.00 0.00 0.00 77 1011.2
20260507123053 67 81 6.1 10.4 0.00 0.00 0.00 72 1011.2
20260507121554 67 75 5.2 12.2 0.00 0.00 0.00 74 1011.1
20260507120047 67 94 5.2 13.0 0.00 0.00 0.00 73 1011.1
20260507114551 67 84 8.7 13.9 0.00 0.00 0.00 74 1011.1
20260507113059 66 54 7.8 14.8 0.00 0.00 0.00 74 1011.2
20260507111548 67 88 7.0 13.0 0.00 0.00 0.00 72 1011.5
20260507110057 67 25 9.6 13.9 0.00 0.00 0.00 73 1011.5
20260507104555 67 71 6.1 13.0 0.00 0.00 0.00 75 1011.7
20260507103115 66 66 7.8 13.9 0.00 0.00 0.00 76 1011.6
20260507101553 66 53 8.7 13.9 0.00 0.00 0.00 75 1011.8